800  
ASUS43 KEAX 191910  
RWREAX  
 
WEATHER ROUNDUP FOR EASTERN KANSAS AND NORTHWEST MISSOURI  
NATIONAL WEATHER SERVICE KANSAS CITY/PLEASANT HILL MO  
200 PM CDT FRI APR 19 2024  
 
KSZ040-057-103>105-MOZ028-029-037-043-192000-   
..KANSAS CITY METROPOLITAN AREA
 
 
 
CITY SKY/WX TMP DP RH WIND PRES REMARKS
 
K.C. INTL MOSUNNY 57 31 37 N8 30.25F  
K.C. DOWNTOWN SUNNY 59 29 31 MISG 30.25F  
LEES SUMMIT SUNNY 58 28 32 NW7 30.26F  
OLATHE - IXD MOSUNNY 59 26 28 VRB7 30.26F  
OLATHE - OJC MOSUNNY 59 25 27 NE10 30.25F  
LAWRENCE MOSUNNY 61 31 32 MISG 30.26F  
 

 
 
MOZ001>008-011>017-020>025-030>033-038>040-044>046-053-054-192000-   
..NORTHERN AND CENTRAL MISSOURI
 
 
 
CITY SKY/WX TMP DP RH WIND PRES REMARKS
 
ST. JOSEPH SUNNY 57 31 37 N6G16 30.27F  
MOSBY MOSUNNY 61 27 27 NW7 30.26F  
HARRISONVILLE SUNNY 61 27 27 NE13 30.27F  
WHITEMAN AFB MOSUNNY 61 26 26 N12 30.23F  
CLINTON PTSUNNY 61 32 33 VRB7 30.23F  
SEDALIA SUNNY 63 25 23 N14G20 30.24F  
MARSHALL MOSUNNY 55 27 33 NW8G18 30.25F  
CHILLICOTHE N/A 57 30 35 VRB6 30.26F  
MOBERLY MOSUNNY 59 27 29 N8 30.24F  
KIRKSVILLE PTSUNNY 55 30 38 NW8G20 30.24F  
 

 
 
MOZ041-047>049-056>058-063>065-088>090-097-192000-   
..EASTERN AND SOUTHERN MISSOURI
 
 
 
CITY SKY/WX TMP DP RH WIND PRES REMARKS
 
ST. LOUIS INTL MOSUNNY 59 30 33 N13G20 30.21F  
SPIRIT OF STL SUNNY 59 32 36 N8 30.21S  
COLUMBIA MOSUNNY 60 27 28 N14 30.22F  
JEFFERSON CITY SUNNY 61 26 26 E14 30.22F  
MEXICO SUNNY 55 32 41 N7 30.23F  
HANNIBAL MOSUNNY 55 28 35 NW6 30.24F  
ROLLA SUNNY 59 30 33 NE13G21 30.22F  
LEBANON MOSUNNY 59 30 33 NE10G17 30.22F  
OSAGE BEACH SUNNY 61 25 25 NE9 30.22F  
SPRINGFIELD MOSUNNY 61 33 35 N7 30.20F  
BRANSON CLOUDY 63 36 36 NW6 30.18F  
JOPLIN PTSUNNY 61 32 33 NE12G21 30.21F  
WEST PLAINS CLOUDY 63 34 33 N8 30.18F  
 

 
 
IAZ060-094-KSZ022-034>040-054-083-096-NEZ052-066-093-192000-    
..KANSAS...SOUTHEAST NEBRASKA AND IOWA
 
 
 
CITY SKY/WX TMP DP RH WIND PRES REMARKS
 
TOPEKA MOSUNNY 60 30 32 CALM 30.26F  
MANHATTAN MOSUNNY 58 28 32 SW7 30.27F  
EMPORIA PTSUNNY 60 27 28 N10G18 30.24F  
CHANUTE SUNNY 65 28 24 NE10 30.22F  
SALINA CLOUDY 56 26 31 VRB3 30.28F  
WICHITA MOSUNNY 61 27 27 NE13G20 30.23F  
OMAHA PTSUNNY 56 24 29 NW16G23 30.25F  
LINCOLN CLOUDY 57 23 26 N13G22 30.27F  
FALLS CITY MOSUNNY 57 30 35 W8G17 30.26F  
LAMONI MOSUNNY 55 33 43 W15G23 30.23F  
DES MOINES MOSUNNY 56 28 34 W17G28 30.22F  
 

 
 
 
 
CLICK HERE TO GO TO PREVIOUS BULLETINS.

The Nexlab MO Page
The Nexlab KS Page Main Text Page